Location: Peterborough
(44.3091°N, 78.3197°W)
Time: 17:55:38
(UTC-04:00)

Vanguard 3 - Pass Details

Date: 30 March 2023
Orbit: 507 x 3246 km, 33.4° (Epoch: 05 June)

Event Time Altitude Azimuth Distance (km) Brightness Sun altitude
Exits shadow 00:43:34 17° 106° (ESE) 5,460 11.1 -41.4°
Drops below altitude 10° 00:48:41 10° 93° (E) 6,165 11.5 -41.6°
Sets 00:55:12 0° 81° (E) 7,198 12.0 -41.8°
